Year,Month,Day,Hour,Minute,Value (Times are PST for temperature in C)
2018,04,23,00,00,7.80
2018,04,23,00,01,7.80
2018,04,23,00,02,7.80
2018,04,23,00,03,7.80
2018,04,23,00,04,7.80
2018,04,23,00,05,7.80
2018,04,23,00,06,7.80
2018,04,23,00,07,7.80
2018,04,23,00,08,7.80
2018,04,23,00,09,7.80
2018,04,23,00,10,7.80
2018,04,23,00,11,7.80
2018,04,23,00,12,7.80
2018,04,23,00,13,7.80
2018,04,23,00,14,7.80
2018,04,23,00,15,7.70
2018,04,23,00,16,7.70
2018,04,23,00,17,7.70
2018,04,23,00,18,7.70
2018,04,23,00,19,7.70
2018,04,23,00,20,7.70
2018,04,23,00,21,7.70
2018,04,23,00,22,7.70
2018,04,23,00,23,7.80
2018,04,23,00,24,7.80
2018,04,23,00,25,7.80
2018,04,23,00,26,7.80
2018,04,23,00,27,7.80
2018,04,23,00,28,7.80
2018,04,23,00,29,7.80
2018,04,23,00,30,7.80
2018,04,23,00,31,7.90
2018,04,23,00,32,7.90
2018,04,23,00,33,7.90
2018,04,23,00,34,7.90
2018,04,23,00,35,7.90
2018,04,23,00,36,7.90
2018,04,23,00,37,7.90
2018,04,23,00,38,7.90
2018,04,23,00,39,7.90
2018,04,23,00,40,7.90
2018,04,23,00,41,7.90
2018,04,23,00,42,7.90
2018,04,23,00,43,7.80
2018,04,23,00,44,7.80
2018,04,23,00,45,7.80
2018,04,23,00,46,7.80
2018,04,23,00,47,7.80
2018,04,23,00,48,7.80
2018,04,23,00,49,7.80
2018,04,23,00,50,7.70
2018,04,23,00,51,7.70
2018,04,23,00,52,7.70
2018,04,23,00,53,7.70
2018,04,23,00,54,7.70
2018,04,23,00,55,7.70
2018,04,23,00,56,7.70
2018,04,23,00,57,7.70
2018,04,23,00,58,7.70
2018,04,23,00,59,7.60
2018,04,23,01,00,7.60
2018,04,23,01,01,7.60
2018,04,23,01,02,7.60
2018,04,23,01,03,7.60
2018,04,23,01,04,7.60
2018,04,23,01,05,7.60
2018,04,23,01,06,7.60
2018,04,23,01,07,7.60
2018,04,23,01,08,7.60
2018,04,23,01,09,7.60
2018,04,23,01,10,7.60
2018,04,23,01,11,7.60
2018,04,23,01,12,7.60
2018,04,23,01,13,7.60
2018,04,23,01,14,7.60
2018,04,23,01,15,7.70
2018,04,23,01,16,7.70
2018,04,23,01,17,7.70
2018,04,23,01,18,7.70
2018,04,23,01,19,7.70
2018,04,23,01,20,7.70
2018,04,23,01,21,7.70
2018,04,23,01,22,7.70
2018,04,23,01,23,7.70
2018,04,23,01,24,7.70
2018,04,23,01,25,7.70
2018,04,23,01,26,7.70
2018,04,23,01,27,7.70
2018,04,23,01,28,7.70
2018,04,23,01,29,7.70
2018,04,23,01,30,7.70
2018,04,23,01,31,7.70
2018,04,23,01,32,7.70
2018,04,23,01,33,7.70
2018,04,23,01,34,7.70
2018,04,23,01,35,7.70
2018,04,23,01,36,7.70
2018,04,23,01,37,7.70
2018,04,23,01,38,7.80
2018,04,23,01,39,7.80
2018,04,23,01,40,7.80
2018,04,23,01,41,7.80
2018,04,23,01,42,7.80
2018,04,23,01,43,7.80
2018,04,23,01,44,7.80
2018,04,23,01,45,7.90
2018,04,23,01,46,7.90
2018,04,23,01,47,7.90
2018,04,23,01,48,7.90
2018,04,23,01,49,8.00
2018,04,23,01,50,8.00
2018,04,23,01,51,8.00
2018,04,23,01,52,8.00
2018,04,23,01,53,8.00
2018,04,23,01,54,8.00
2018,04,23,01,55,8.00
2018,04,23,01,56,8.00
2018,04,23,01,57,8.00
2018,04,23,01,58,8.10
2018,04,23,01,59,8.00
2018,04,23,02,00,8.00
2018,04,23,02,01,8.00
2018,04,23,02,02,8.00
2018,04,23,02,03,8.00
2018,04,23,02,04,7.90
2018,04,23,02,05,7.90
2018,04,23,02,06,7.80
2018,04,23,02,07,7.80
2018,04,23,02,08,7.80
2018,04,23,02,09,7.80
2018,04,23,02,10,7.70
2018,04,23,02,11,7.70
2018,04,23,02,12,7.70
2018,04,23,02,13,7.60
2018,04,23,02,14,7.60
2018,04,23,02,15,7.60
2018,04,23,02,16,7.60
2018,04,23,02,17,7.60
2018,04,23,02,18,7.50
2018,04,23,02,19,7.50
2018,04,23,02,20,7.40
2018,04,23,02,21,7.40
2018,04,23,02,22,7.40
2018,04,23,02,23,7.40
2018,04,23,02,24,7.40
2018,04,23,02,25,7.40
2018,04,23,02,26,7.40
2018,04,23,02,27,7.30
2018,04,23,02,28,7.30
2018,04,23,02,29,7.30
2018,04,23,02,30,7.30
2018,04,23,02,31,7.30
2018,04,23,02,32,7.30
2018,04,23,02,33,7.30
2018,04,23,02,34,7.30
2018,04,23,02,35,7.30
2018,04,23,02,36,7.30
2018,04,23,02,37,7.40
2018,04,23,02,38,7.40
2018,04,23,02,39,7.40
2018,04,23,02,40,7.40
2018,04,23,02,41,7.40
2018,04,23,02,42,7.40
2018,04,23,02,43,7.30
2018,04,23,02,44,7.30
2018,04,23,02,45,7.30
2018,04,23,02,46,7.30
2018,04,23,02,47,7.30
2018,04,23,02,48,7.30
2018,04,23,02,49,7.30
2018,04,23,02,50,7.30
2018,04,23,02,51,7.30
2018,04,23,02,52,7.30
2018,04,23,02,53,7.30
2018,04,23,02,54,7.20
2018,04,23,02,55,7.20
2018,04,23,02,56,7.20
2018,04,23,02,57,7.20
2018,04,23,02,58,7.10
2018,04,23,02,59,7.10
2018,04,23,03,00,7.00
2018,04,23,03,01,7.00
2018,04,23,03,02,6.90
2018,04,23,03,03,6.90
2018,04,23,03,04,6.90
2018,04,23,03,05,6.90
2018,04,23,03,06,6.90
2018,04,23,03,07,6.90
2018,04,23,03,08,7.00
2018,04,23,03,09,7.00
2018,04,23,03,10,7.10
2018,04,23,03,11,7.20
2018,04,23,03,12,7.20
2018,04,23,03,13,7.30
2018,04,23,03,14,7.40
2018,04,23,03,15,7.40
2018,04,23,03,16,7.50
2018,04,23,03,17,7.60
2018,04,23,03,18,7.70
2018,04,23,03,19,7.80
2018,04,23,03,20,7.80
2018,04,23,03,21,7.90
2018,04,23,03,22,8.00
2018,04,23,03,23,8.10
2018,04,23,03,24,8.10
2018,04,23,03,25,8.10
2018,04,23,03,26,8.10
2018,04,23,03,27,8.10
2018,04,23,03,28,8.10
2018,04,23,03,29,8.10
2018,04,23,03,30,8.00
2018,04,23,03,31,8.00
2018,04,23,03,32,8.00
2018,04,23,03,33,8.00
2018,04,23,03,34,8.00
2018,04,23,03,35,8.00
2018,04,23,03,36,8.00
2018,04,23,03,37,8.00
2018,04,23,03,38,8.00
2018,04,23,03,39,8.00
2018,04,23,03,40,8.10
2018,04,23,03,41,8.10
2018,04,23,03,42,8.10
2018,04,23,03,43,8.10
2018,04,23,03,44,8.10
2018,04,23,03,45,8.10
2018,04,23,03,46,8.10
2018,04,23,03,47,8.00
2018,04,23,03,48,8.00
2018,04,23,03,49,7.90
2018,04,23,03,50,7.90
2018,04,23,03,51,7.90
2018,04,23,03,52,7.90
2018,04,23,03,53,7.80
2018,04,23,03,54,7.80
2018,04,23,03,55,7.70
2018,04,23,03,56,7.70
2018,04,23,03,57,7.60
2018,04,23,03,58,7.60
2018,04,23,03,59,7.50
2018,04,23,04,00,7.50
2018,04,23,04,01,7.40
2018,04,23,04,02,7.40
2018,04,23,04,03,7.40
2018,04,23,04,04,7.40
2018,04,23,04,05,7.30
2018,04,23,04,06,7.30
2018,04,23,04,07,7.30
2018,04,23,04,08,7.20
2018,04,23,04,09,7.20
2018,04,23,04,10,7.20
2018,04,23,04,11,7.20
2018,04,23,04,12,7.20
2018,04,23,04,13,7.20
2018,04,23,04,14,7.20
2018,04,23,04,15,7.20
2018,04,23,04,16,7.20
2018,04,23,04,17,7.20
2018,04,23,04,18,7.20
2018,04,23,04,19,7.10
2018,04,23,04,20,7.10
2018,04,23,04,21,7.10
2018,04,23,04,22,7.10
2018,04,23,04,23,7.10
2018,04,23,04,24,7.10
2018,04,23,04,25,7.00
2018,04,23,04,26,7.00
2018,04,23,04,27,7.00
2018,04,23,04,28,7.00
2018,04,23,04,29,7.00
2018,04,23,04,30,7.00
2018,04,23,04,31,7.00
2018,04,23,04,32,7.00
2018,04,23,04,33,7.10
2018,04,23,04,34,7.10
2018,04,23,04,35,7.20
2018,04,23,04,36,7.20
2018,04,23,04,37,7.20
2018,04,23,04,38,7.20
2018,04,23,04,39,7.30
2018,04,23,04,40,7.30
2018,04,23,04,41,7.30
2018,04,23,04,42,7.30
2018,04,23,04,43,7.30
2018,04,23,04,44,7.30
2018,04,23,04,45,7.40
2018,04,23,04,46,7.40
2018,04,23,04,47,7.40
2018,04,23,04,48,7.40
2018,04,23,04,49,7.40
2018,04,23,04,50,7.40
2018,04,23,04,51,7.30
2018,04,23,04,52,7.30
2018,04,23,04,53,7.30
2018,04,23,04,54,7.30
2018,04,23,04,55,7.30
2018,04,23,04,56,7.30
2018,04,23,04,57,7.30
2018,04,23,04,58,7.30
2018,04,23,04,59,7.20
2018,04,23,05,00,7.20
2018,04,23,05,01,7.20
2018,04,23,05,02,7.20
2018,04,23,05,03,7.20
2018,04,23,05,04,7.20
2018,04,23,05,05,7.20
2018,04,23,05,06,7.20
2018,04,23,05,07,7.20
2018,04,23,05,08,7.20
2018,04,23,05,09,7.20
2018,04,23,05,10,7.20
2018,04,23,05,11,7.20
2018,04,23,05,12,7.20
2018,04,23,05,13,7.20
2018,04,23,05,14,7.20
2018,04,23,05,15,7.20
2018,04,23,05,16,7.20
2018,04,23,05,17,7.10
2018,04,23,05,18,7.10
2018,04,23,05,19,7.00
2018,04,23,05,20,7.00
2018,04,23,05,21,6.90
2018,04,23,05,22,6.90
2018,04,23,05,23,6.80
2018,04,23,05,24,6.80
2018,04,23,05,25,6.70
2018,04,23,05,26,6.70
2018,04,23,05,27,6.60
2018,04,23,05,28,6.60
2018,04,23,05,29,6.50
2018,04,23,05,30,6.50
2018,04,23,05,31,6.40
2018,04,23,05,32,6.30
2018,04,23,05,33,6.20
2018,04,23,05,34,6.10
2018,04,23,05,35,6.00
2018,04,23,05,36,5.90
2018,04,23,05,37,5.80
2018,04,23,05,38,5.70
2018,04,23,05,39,5.60
2018,04,23,05,40,5.40
2018,04,23,05,41,5.30
2018,04,23,05,42,5.30
2018,04,23,05,43,5.20
2018,04,23,05,44,5.10
2018,04,23,05,45,5.10
2018,04,23,05,46,5.10
2018,04,23,05,47,5.10
2018,04,23,05,48,5.10
2018,04,23,05,49,5.10
2018,04,23,05,50,5.10
2018,04,23,05,51,5.10
2018,04,23,05,52,5.00
2018,04,23,05,53,5.10
2018,04,23,05,54,5.10
2018,04,23,05,55,5.10
2018,04,23,05,56,5.10
2018,04,23,05,57,5.20
2018,04,23,05,58,5.30
2018,04,23,05,59,5.40
2018,04,23,06,00,5.50
2018,04,23,06,01,5.60
2018,04,23,06,02,5.70
2018,04,23,06,03,5.80
2018,04,23,06,04,5.90
2018,04,23,06,05,5.90
2018,04,23,06,06,6.00
2018,04,23,06,07,6.10
2018,04,23,06,08,6.20
2018,04,23,06,09,6.30
2018,04,23,06,10,6.40
2018,04,23,06,11,6.40
2018,04,23,06,12,6.40
2018,04,23,06,13,6.50
2018,04,23,06,14,6.50
2018,04,23,06,15,6.50
2018,04,23,06,16,6.60
2018,04,23,06,17,6.60
2018,04,23,06,18,6.60
2018,04,23,06,19,6.70
2018,04,23,06,20,6.70
2018,04,23,06,21,6.70
2018,04,23,06,22,6.70
2018,04,23,06,23,6.70
2018,04,23,06,24,6.80
2018,04,23,06,25,6.80
2018,04,23,06,26,6.80
2018,04,23,06,27,6.80
2018,04,23,06,28,6.80
2018,04,23,06,29,6.80
2018,04,23,06,30,6.80
2018,04,23,06,31,6.80
2018,04,23,06,32,6.80
2018,04,23,06,33,6.80
2018,04,23,06,34,6.80
2018,04,23,06,35,6.80
2018,04,23,06,36,6.70
2018,04,23,06,37,6.70
2018,04,23,06,38,6.70
2018,04,23,06,39,6.70
2018,04,23,06,40,6.70
2018,04,23,06,41,6.70
2018,04,23,06,42,6.70
2018,04,23,06,43,6.70
2018,04,23,06,44,6.70
2018,04,23,06,45,6.70
2018,04,23,06,46,6.70
2018,04,23,06,47,6.70
2018,04,23,06,48,6.70
2018,04,23,06,49,6.80
2018,04,23,06,50,6.80
2018,04,23,06,51,6.80
2018,04,23,06,52,6.80
2018,04,23,06,53,6.80
2018,04,23,06,54,6.80
2018,04,23,06,55,6.90
2018,04,23,06,56,6.90
2018,04,23,06,57,6.90
2018,04,23,06,58,6.90
2018,04,23,06,59,6.90
2018,04,23,07,00,6.90
2018,04,23,07,01,6.90
2018,04,23,07,02,7.00
2018,04,23,07,03,7.00
2018,04,23,07,04,7.00
2018,04,23,07,05,7.00
2018,04,23,07,06,7.10
2018,04,23,07,07,7.10
2018,04,23,07,08,7.20
2018,04,23,07,09,7.20
2018,04,23,07,10,7.20
2018,04,23,07,11,7.20
2018,04,23,07,12,7.20
2018,04,23,07,13,7.20
2018,04,23,07,14,7.20
2018,04,23,07,15,7.30
2018,04,23,07,16,7.30
2018,04,23,07,17,7.30
2018,04,23,07,18,7.40
2018,04,23,07,19,7.40
2018,04,23,07,20,7.40
2018,04,23,07,21,7.40
2018,04,23,07,22,7.40
2018,04,23,07,23,7.50
2018,04,23,07,24,7.50
2018,04,23,07,25,7.50
2018,04,23,07,26,7.50
2018,04,23,07,27,7.60
2018,04,23,07,28,7.60
2018,04,23,07,29,7.60
2018,04,23,07,30,7.70
2018,04,23,07,31,7.70
2018,04,23,07,32,7.70
2018,04,23,07,33,7.80
2018,04,23,07,34,7.80
2018,04,23,07,35,7.80
2018,04,23,07,36,7.80
2018,04,23,07,37,7.80
2018,04,23,07,38,7.90
2018,04,23,07,39,7.90
2018,04,23,07,40,7.90
2018,04,23,07,41,7.90
2018,04,23,07,42,7.90
2018,04,23,07,43,7.90
2018,04,23,07,44,7.90
2018,04,23,07,45,7.90
2018,04,23,07,46,7.90
2018,04,23,07,47,7.90
2018,04,23,07,48,7.90
2018,04,23,07,49,8.00
2018,04,23,07,50,8.00
2018,04,23,07,51,8.00
2018,04,23,07,52,8.00
2018,04,23,07,53,8.00
2018,04,23,07,54,7.90
2018,04,23,07,55,8.00
2018,04,23,07,56,8.00
2018,04,23,07,57,8.00
2018,04,23,07,58,8.00
2018,04,23,07,59,8.10
2018,04,23,08,00,8.10
2018,04,23,08,01,8.20
2018,04,23,08,02,8.20
2018,04,23,08,03,8.20
2018,04,23,08,04,8.30
2018,04,23,08,05,8.30
2018,04,23,08,06,8.30
2018,04,23,08,07,8.40
2018,04,23,08,08,8.40
2018,04,23,08,09,8.40
2018,04,23,08,10,8.40
2018,04,23,08,11,8.40
2018,04,23,08,12,8.50
2018,04,23,08,13,8.50
2018,04,23,08,14,8.50
2018,04,23,08,15,8.60
2018,04,23,08,16,8.60
2018,04,23,08,17,8.60
2018,04,23,08,18,8.60
2018,04,23,08,19,8.60
2018,04,23,08,20,8.60
2018,04,23,08,21,8.70
2018,04,23,08,22,8.70
2018,04,23,08,23,8.70
2018,04,23,08,24,8.70
2018,04,23,08,25,8.70
2018,04,23,08,26,8.80
2018,04,23,08,27,8.80
2018,04,23,08,28,8.80
2018,04,23,08,29,8.80
2018,04,23,08,30,8.80
2018,04,23,08,31,8.90
2018,04,23,08,32,8.90
2018,04,23,08,33,8.90
2018,04,23,08,34,8.90
2018,04,23,08,35,8.90
2018,04,23,08,36,8.90
2018,04,23,08,37,8.90
2018,04,23,08,38,9.00
2018,04,23,08,39,9.00
2018,04,23,08,40,9.00
2018,04,23,08,41,9.00
2018,04,23,08,42,9.00
2018,04,23,08,43,8.90
2018,04,23,08,44,8.90
2018,04,23,08,45,9.00
2018,04,23,08,46,9.00
2018,04,23,08,47,9.10
2018,04,23,08,48,9.20
2018,04,23,08,49,9.20
2018,04,23,08,50,9.20
2018,04,23,08,51,9.20
2018,04,23,08,52,9.20
2018,04,23,08,53,9.20
2018,04,23,08,54,9.20
2018,04,23,08,55,9.20
2018,04,23,08,56,9.20
2018,04,23,08,57,9.20
2018,04,23,08,58,9.20
2018,04,23,08,59,9.20
2018,04,23,09,00,9.30
2018,04,23,09,01,9.30
2018,04,23,09,02,9.30
2018,04,23,09,03,9.30
2018,04,23,09,04,9.40
2018,04,23,09,05,9.40
2018,04,23,09,06,9.40
2018,04,23,09,07,9.40
2018,04,23,09,08,9.40
2018,04,23,09,09,9.40
2018,04,23,09,10,9.40
2018,04,23,09,11,9.40
2018,04,23,09,12,9.50
2018,04,23,09,13,9.40
2018,04,23,09,14,9.40
2018,04,23,09,15,9.50
2018,04,23,09,16,9.50
2018,04,23,09,17,9.60
2018,04,23,09,18,9.60
2018,04,23,09,19,9.70
2018,04,23,09,20,9.80
2018,04,23,09,21,9.90
2018,04,23,09,22,10.00
2018,04,23,09,23,10.10
2018,04,23,09,24,10.10
2018,04,23,09,25,10.20
2018,04,23,09,26,10.20
2018,04,23,09,27,10.20
2018,04,23,09,28,10.30
2018,04,23,09,29,10.30
2018,04,23,09,30,10.30
2018,04,23,09,31,10.30
2018,04,23,09,32,10.30
2018,04,23,09,33,10.40
2018,04,23,09,34,10.40
2018,04,23,09,35,10.40
2018,04,23,09,36,10.40
2018,04,23,09,37,10.40
2018,04,23,09,38,10.50
2018,04,23,09,39,10.50
2018,04,23,09,40,10.50
2018,04,23,09,41,10.50
2018,04,23,09,42,10.60
2018,04,23,09,43,10.50
2018,04,23,09,44,10.50
2018,04,23,09,45,10.50
2018,04,23,09,46,10.50
2018,04,23,09,47,10.50
2018,04,23,09,48,10.50
2018,04,23,09,49,10.50
2018,04,23,09,50,10.50
2018,04,23,09,51,10.40
2018,04,23,09,52,10.40
2018,04,23,09,53,10.40
2018,04,23,09,54,10.30
2018,04,23,09,55,10.30
2018,04,23,09,56,10.30
2018,04,23,09,57,10.30
2018,04,23,09,58,10.30
2018,04,23,09,59,10.30
2018,04,23,10,00,10.30
2018,04,23,10,01,10.30
2018,04,23,10,02,10.20
2018,04,23,10,03,10.20
2018,04,23,10,04,10.20
2018,04,23,10,05,10.10
2018,04,23,10,06,10.10
2018,04,23,10,07,10.10
2018,04,23,10,08,10.10
2018,04,23,10,09,10.10
2018,04,23,10,10,10.10
2018,04,23,10,11,10.10
2018,04,23,10,12,10.20
2018,04,23,10,13,10.20
2018,04,23,10,14,10.20
2018,04,23,10,15,10.20
2018,04,23,10,16,10.30
2018,04,23,10,17,10.30
2018,04,23,10,18,10.30
2018,04,23,10,19,10.40
2018,04,23,10,20,10.40
2018,04,23,10,21,10.40
2018,04,23,10,22,10.40
2018,04,23,10,23,10.50
2018,04,23,10,24,10.50
2018,04,23,10,25,10.50
2018,04,23,10,26,10.60
2018,04,23,10,27,10.70
2018,04,23,10,28,10.80
2018,04,23,10,29,10.80
2018,04,23,10,30,10.90
2018,04,23,10,31,11.00
2018,04,23,10,32,11.00
2018,04,23,10,33,11.10
2018,04,23,10,34,11.20
2018,04,23,10,35,11.20
2018,04,23,10,36,11.20
2018,04,23,10,37,11.20
2018,04,23,10,38,11.30
2018,04,23,10,39,11.30
2018,04,23,10,40,11.30
2018,04,23,10,41,11.30
2018,04,23,10,42,11.40
2018,04,23,10,43,11.40
2018,04,23,10,44,11.40
2018,04,23,10,45,11.40
2018,04,23,10,46,11.40
2018,04,23,10,47,11.30
2018,04,23,10,48,11.30
2018,04,23,10,49,11.20
2018,04,23,10,50,11.10
2018,04,23,10,51,11.00
2018,04,23,10,52,10.90
2018,04,23,10,53,10.80
2018,04,23,10,54,10.70
2018,04,23,10,55,10.70
2018,04,23,10,56,10.70
2018,04,23,10,57,10.80
2018,04,23,10,58,10.90
2018,04,23,10,59,11.00
2018,04,23,11,00,11.10
2018,04,23,11,01,11.20
2018,04,23,11,02,11.20
2018,04,23,11,03,11.10
2018,04,23,11,04,11.10
2018,04,23,11,05,11.20
2018,04,23,11,06,11.20
2018,04,23,11,07,11.30
2018,04,23,11,08,11.30
2018,04,23,11,09,11.30
2018,04,23,11,10,11.40
2018,04,23,11,11,11.40
2018,04,23,11,12,11.40
2018,04,23,11,13,11.40
2018,04,23,11,14,11.40
2018,04,23,11,15,11.40
2018,04,23,11,16,11.40
2018,04,23,11,17,11.40
2018,04,23,11,18,11.40
2018,04,23,11,19,11.40
2018,04,23,11,20,11.50
2018,04,23,11,21,11.60
2018,04,23,11,22,11.60
2018,04,23,11,23,11.70
2018,04,23,11,24,11.80
2018,04,23,11,25,11.90
2018,04,23,11,26,11.90
2018,04,23,11,27,12.00
2018,04,23,11,28,11.90
2018,04,23,11,29,11.90
2018,04,23,11,30,11.90
2018,04,23,11,31,12.00
2018,04,23,11,32,12.00
2018,04,23,11,33,12.10
2018,04,23,11,34,12.10
2018,04,23,11,35,12.10
2018,04,23,11,36,12.10
2018,04,23,11,37,12.10
2018,04,23,11,38,12.10
2018,04,23,11,39,12.10
2018,04,23,11,40,12.10
2018,04,23,11,41,12.20
2018,04,23,11,42,12.10
2018,04,23,11,43,12.00
2018,04,23,11,44,11.90
2018,04,23,11,45,11.80
2018,04,23,11,46,11.80
2018,04,23,11,47,11.80
2018,04,23,11,48,11.90
2018,04,23,11,49,11.90
2018,04,23,11,50,12.00
2018,04,23,11,51,12.10
2018,04,23,11,52,12.20
2018,04,23,11,53,12.30
2018,04,23,11,54,12.20
2018,04,23,11,55,12.20
2018,04,23,11,56,12.20
2018,04,23,11,57,12.30
2018,04,23,11,58,12.40
2018,04,23,11,59,12.40
2018,04,23,12,00,12.50
2018,04,23,12,01,12.50
2018,04,23,12,02,12.40
2018,04,23,12,03,12.50
2018,04,23,12,04,12.50
2018,04,23,12,05,12.60
2018,04,23,12,06,12.60
2018,04,23,12,07,12.50
2018,04,23,12,08,12.40
2018,04,23,12,09,12.50
2018,04,23,12,10,12.50
2018,04,23,12,11,12.50
2018,04,23,12,12,12.60
2018,04,23,12,13,12.60
2018,04,23,12,14,12.60
2018,04,23,12,15,12.60
2018,04,23,12,16,12.50
2018,04,23,12,17,12.40
2018,04,23,12,18,12.40
2018,04,23,12,19,12.50
2018,04,23,12,20,12.50
2018,04,23,12,21,12.50
2018,04,23,12,22,12.60
2018,04,23,12,23,12.60
2018,04,23,12,24,12.70
2018,04,23,12,25,12.80
2018,04,23,12,26,12.80
2018,04,23,12,27,12.90
2018,04,23,12,28,12.90
2018,04,23,12,29,12.90
2018,04,23,12,30,12.80
2018,04,23,12,31,12.70
2018,04,23,12,32,12.70
2018,04,23,12,33,12.80
2018,04,23,12,34,12.80
2018,04,23,12,35,12.90
2018,04,23,12,36,13.00
2018,04,23,12,37,13.00
2018,04,23,12,38,13.10
2018,04,23,12,39,13.10
2018,04,23,12,40,13.10
2018,04,23,12,41,13.10
2018,04,23,12,42,13.20
2018,04,23,12,43,13.10
2018,04,23,12,44,13.00
2018,04,23,12,45,12.90
2018,04,23,12,46,12.90
2018,04,23,12,47,12.90
2018,04,23,12,48,12.90
2018,04,23,12,49,12.90
2018,04,23,12,50,12.90
2018,04,23,12,51,12.80
2018,04,23,12,52,12.70
2018,04,23,12,53,12.70
2018,04,23,12,54,12.70
2018,04,23,12,55,12.80
2018,04,23,12,56,12.90
2018,04,23,12,57,13.00
2018,04,23,12,58,13.10
2018,04,23,12,59,13.20
2018,04,23,13,00,13.20
2018,04,23,13,01,13.20
2018,04,23,13,02,13.20
2018,04,23,13,03,13.10
2018,04,23,13,04,13.10
2018,04,23,13,05,13.10
2018,04,23,13,06,13.20
2018,04,23,13,07,13.30
2018,04,23,13,08,13.30
2018,04,23,13,09,13.40
2018,04,23,13,10,13.40
2018,04,23,13,11,13.40
2018,04,23,13,12,13.30
2018,04,23,13,13,13.30
2018,04,23,13,14,13.20
2018,04,23,13,15,13.10
2018,04,23,13,16,13.10
2018,04,23,13,17,13.20
2018,04,23,13,18,13.30
2018,04,23,13,19,13.50
2018,04,23,13,20,13.60
2018,04,23,13,21,13.70
2018,04,23,13,22,13.70
2018,04,23,13,23,13.80
2018,04,23,13,24,13.90
2018,04,23,13,25,14.00
2018,04,23,13,26,14.10
2018,04,23,13,27,14.20
2018,04,23,13,28,14.20
2018,04,23,13,29,14.20
2018,04,23,13,30,14.10
2018,04,23,13,31,14.10
2018,04,23,13,32,14.10
2018,04,23,13,33,14.10
2018,04,23,13,34,14.20
2018,04,23,13,35,14.20
2018,04,23,13,36,14.30
2018,04,23,13,37,14.40
2018,04,23,13,38,14.60
2018,04,23,13,39,14.70
2018,04,23,13,40,14.80
2018,04,23,13,41,14.80
2018,04,23,13,42,14.80
2018,04,23,13,43,14.80
2018,04,23,13,44,14.80
2018,04,23,13,45,14.80
2018,04,23,13,46,14.80
2018,04,23,13,47,14.80
2018,04,23,13,48,14.80
2018,04,23,13,49,14.90
2018,04,23,13,50,15.00
2018,04,23,13,51,15.00
2018,04,23,13,52,15.00
2018,04,23,13,53,15.10
2018,04,23,13,54,15.20
2018,04,23,13,55,15.20
2018,04,23,13,56,15.10
2018,04,23,13,57,15.00
2018,04,23,13,58,15.00
2018,04,23,13,59,15.00
2018,04,23,14,00,15.00
2018,04,23,14,01,15.00
2018,04,23,14,02,15.10
2018,04,23,14,03,15.10
2018,04,23,14,04,15.00
2018,04,23,14,05,15.00
2018,04,23,14,06,15.00
2018,04,23,14,07,15.00
2018,04,23,14,08,15.00
2018,04,23,14,09,15.00
2018,04,23,14,10,15.00
2018,04,23,14,11,15.10
2018,04,23,14,12,15.20
2018,04,23,14,13,15.20
2018,04,23,14,14,15.20
2018,04,23,14,15,15.20
2018,04,23,14,16,15.20
2018,04,23,14,17,15.10
2018,04,23,14,18,15.10
2018,04,23,14,19,15.10
2018,04,23,14,20,15.20
2018,04,23,14,21,15.30
2018,04,23,14,22,15.30
2018,04,23,14,23,15.40
2018,04,23,14,24,15.50
2018,04,23,14,25,15.50
2018,04,23,14,26,15.60
2018,04,23,14,27,15.60
2018,04,23,14,28,15.60
2018,04,23,14,29,15.70
2018,04,23,14,30,15.70
2018,04,23,14,31,15.70
2018,04,23,14,32,15.70
2018,04,23,14,33,15.70
2018,04,23,14,34,15.70
2018,04,23,14,35,15.70
2018,04,23,14,36,15.70
2018,04,23,14,37,15.70
2018,04,23,14,38,15.70
2018,04,23,14,39,15.70
2018,04,23,14,40,15.70
2018,04,23,14,41,15.80
2018,04,23,14,42,15.80
2018,04,23,14,43,15.90
2018,04,23,14,44,15.90
2018,04,23,14,45,16.00
2018,04,23,14,46,16.10
2018,04,23,14,47,16.20
2018,04,23,14,48,16.30
2018,04,23,14,49,16.30
2018,04,23,14,50,16.30
2018,04,23,14,51,16.30
2018,04,23,14,52,16.30
2018,04,23,14,53,16.30
2018,04,23,14,54,16.40
2018,04,23,14,55,16.30
2018,04,23,14,56,16.30
2018,04,23,14,57,16.20
2018,04,23,14,58,16.20
2018,04,23,14,59,16.10
2018,04,23,15,00,16.00
2018,04,23,15,01,15.90
2018,04,23,15,02,15.90
2018,04,23,15,03,15.90
2018,04,23,15,04,15.90
2018,04,23,15,05,15.90
2018,04,23,15,06,15.90
2018,04,23,15,07,15.90
2018,04,23,15,08,15.90
2018,04,23,15,09,16.00
2018,04,23,15,10,15.90
2018,04,23,15,11,15.90
2018,04,23,15,12,16.00
2018,04,23,15,13,16.00
2018,04,23,15,14,15.90
2018,04,23,15,15,15.80
2018,04,23,15,16,15.70
2018,04,23,15,17,15.70
2018,04,23,15,18,15.70
2018,04,23,15,19,15.60
2018,04,23,15,20,15.60
2018,04,23,15,21,15.70
2018,04,23,15,22,15.70
2018,04,23,15,23,15.70
2018,04,23,15,24,15.70
2018,04,23,15,25,15.80
2018,04,23,15,26,15.90
2018,04,23,15,27,16.10
2018,04,23,15,28,16.20
2018,04,23,15,29,16.20
2018,04,23,15,30,16.30
2018,04,23,15,31,16.30
2018,04,23,15,32,16.40
2018,04,23,15,33,16.40
2018,04,23,15,34,16.40
2018,04,23,15,35,16.40
2018,04,23,15,36,16.50
2018,04,23,15,37,16.60
2018,04,23,15,38,16.60
2018,04,23,15,39,16.70
2018,04,23,15,40,16.70
2018,04,23,15,41,16.60
2018,04,23,15,42,16.50
2018,04,23,15,43,16.40
2018,04,23,15,44,16.40
2018,04,23,15,45,16.30
2018,04,23,15,46,16.40
2018,04,23,15,47,16.40
2018,04,23,15,48,16.50
2018,04,23,15,49,16.60
2018,04,23,15,50,16.60
2018,04,23,15,51,16.60
2018,04,23,15,52,16.60
2018,04,23,15,53,16.60
2018,04,23,15,54,16.70
2018,04,23,15,55,16.70
2018,04,23,15,56,16.70
2018,04,23,15,57,16.60
2018,04,23,15,58,16.60
2018,04,23,15,59,16.60
2018,04,23,16,00,16.60
2018,04,23,16,01,16.60
2018,04,23,16,02,16.60
2018,04,23,16,03,16.60
2018,04,23,16,04,16.60
2018,04,23,16,05,16.60
2018,04,23,16,06,16.60
2018,04,23,16,07,16.60
2018,04,23,16,08,16.70
2018,04,23,16,09,16.70
2018,04,23,16,10,16.80
2018,04,23,16,11,16.80
2018,04,23,16,12,16.80
2018,04,23,16,13,16.70
2018,04,23,16,14,16.70
2018,04,23,16,15,16.60
2018,04,23,16,16,16.50
2018,04,23,16,17,16.40
2018,04,23,16,18,16.30
2018,04,23,16,19,16.20
2018,04,23,16,20,16.10
2018,04,23,16,21,16.00
2018,04,23,16,22,15.90
2018,04,23,16,23,16.00
2018,04,23,16,24,16.00
2018,04,23,16,25,16.00
2018,04,23,16,26,16.00
2018,04,23,16,27,16.00
2018,04,23,16,28,16.10
2018,04,23,16,29,16.20
2018,04,23,16,30,16.30
2018,04,23,16,31,16.40
2018,04,23,16,32,16.40
2018,04,23,16,33,16.50
2018,04,23,16,34,16.40
2018,04,23,16,35,16.30
2018,04,23,16,36,16.20
2018,04,23,16,37,16.20
2018,04,23,16,38,16.20
2018,04,23,16,39,16.10
2018,04,23,16,40,16.10
2018,04,23,16,41,16.00
2018,04,23,16,42,15.90
2018,04,23,16,43,15.90
2018,04,23,16,44,15.80
2018,04,23,16,45,15.90
2018,04,23,16,46,15.90
2018,04,23,16,47,15.90
2018,04,23,16,48,15.80
2018,04,23,16,49,15.80
2018,04,23,16,50,15.80
2018,04,23,16,51,15.80
2018,04,23,16,52,15.80
2018,04,23,16,53,15.80
2018,04,23,16,54,15.80
2018,04,23,16,55,15.80
2018,04,23,16,56,15.80
2018,04,23,16,57,15.90
2018,04,23,16,58,15.90
2018,04,23,16,59,15.90
2018,04,23,17,00,15.90
2018,04,23,17,01,15.90
2018,04,23,17,02,15.90
2018,04,23,17,03,15.90
2018,04,23,17,04,15.90
2018,04,23,17,05,15.90
2018,04,23,17,06,15.90
2018,04,23,17,07,16.00
2018,04,23,17,08,16.00
2018,04,23,17,09,16.10
2018,04,23,17,10,16.10
2018,04,23,17,11,16.20
2018,04,23,17,12,16.30
2018,04,23,17,13,16.30
2018,04,23,17,14,16.30
2018,04,23,17,15,16.30
2018,04,23,17,16,16.20
2018,04,23,17,17,16.10
2018,04,23,17,18,16.10
2018,04,23,17,19,16.10
2018,04,23,17,20,16.10
2018,04,23,17,21,16.10
2018,04,23,17,22,16.20
2018,04,23,17,23,16.20
2018,04,23,17,24,16.20
2018,04,23,17,25,16.20
2018,04,23,17,26,16.20
2018,04,23,17,27,16.20
2018,04,23,17,28,16.10
2018,04,23,17,29,16.10
2018,04,23,17,30,16.00
2018,04,23,17,31,15.90
2018,04,23,17,32,15.90
2018,04,23,17,33,15.90
2018,04,23,17,34,15.90
2018,04,23,17,35,15.90
2018,04,23,17,36,15.90
2018,04,23,17,37,15.90
2018,04,23,17,38,15.90
2018,04,23,17,39,15.90
2018,04,23,17,40,15.90
2018,04,23,17,41,15.90
2018,04,23,17,42,15.90
2018,04,23,17,43,15.90